Location: Chervonnoye
(48.6000°N, 34.4000°E)
Time: 21:22:36
(UTC+00:00)

BEESAT 3 - Pass Details

Date: 12 December 2021
Orbit: 472 x 512 km, 64.9° (Epoch: 27 January)

Event Time Altitude Azimuth Distance (km) Brightness Sun altitude
Rises 17:10:52 0° 276° (W) 2,579 ? -32.6°
Reaches altitude 10° 17:14:02 10° 305° (NW) 1,711 ? -33.1°
Enters shadow 17:14:18 11° 309° (NW) 1,662 ? -33.1°
